Voltar ao catálogo

ATLAS 5 CENTAUR DEB

AtivoHEO
NORAD 46857·DEBRIS·🇺🇸 United States

Lançado Oct 17, 2018 de Cape Canaveral Space Force Station

Loading…

Próximas Passagens (próximas 24 horas)

TLE

AtualizadoSource: Space-Track

Época: Sep 13, 2026, 19:05 UTC

1 46857U 18079DN  26256.79538035 -.00000138  00000-0  00000-0 0  9999
2 46857  12.7389  67.9887 4611991 248.6430  57.1717  1.69096427 36220

Acompanhe ATLAS 5 CENTAUR DEB em tempo real com AllMySat

Download on the App Store